Location: Unspecified
(0.0000°N, 0.0000°E)
Time: 10:07:01
(UTC+00:00)

Vanguard 1 Rocket - Pass Details

Date: 25 November 2019
Orbit: 655 x 4222 km, 34.3° (Epoch: 11 August)

Event Time Altitude Azimuth Distance (km) Brightness Sun altitude
Rises 21:57:21 0° 240° (WSW) 7,634 12.6 -56.1°
Reaches altitude 10° 22:03:23 10° 244° (WSW) 6,110 11.9 -57.2°
Enters shadow 22:13:44 37° 260° (W) 3,336 10.2 -59.1°
